[[{"header":{"parameterUnit":"m.s-1","parameterCategory":1,"la1":30.2991,"la2":30.254,"lo1":-89.0895,"lo2":-89.0444,"dy":0.0017,"dx":0.0017,"nx":28,"ny":28,"refTime":"2025-06-05T21:00:00:Z","depth":0,"parameterNumber":2,"parameterNumberName":"U-component_of_WINDS"},"data":[0,0,0,0,0,0,0,0,0,0,0,0,0,0,0,0,0,0,0,0,0,0,0,0,0,0,0,0,0,0,0,0,0,0,0,0,0,0,0,0,0,0,0,0,0,0,0,0,0,0,0,0,0,0,0,0,0,0,3.7018,3.7019,0,3.7141,3.7143,3.7144,3.7115,3.7112,3.711,3.7108,3.7233,3.7239,3.7244,0,0,0,0,0,0,0,0,0,0,0,0,0,3.6755,3.676,3.7018,3.702,3.7021,3.7141,3.7143,3.7144,3.7115,3.7112,3.7109,3.7107,3.7232,3.7238,3.7245,0,0,0,0,0,0,0,0,0,0,0,0,0,3.6873,3.6761,3.7018,3.7021,3.7022,3.7141,3.7143,3.7145,3.7116,3.7112,3.7109,3.7105,3.7229,3.7238,3.7246,3.7368,0,0,3.7271,3.7275,0,0,0,0,0,0,0,0,3.6866,3.6882,3.7019,3.7021,3.7023,3.7109,3.7096,3.722,3.7117,3.708,3.7108,3.7104,3.7195,3.7206,3.7237,3.7374,3.738,3.7272,3.7277,3.7281,3.7283,0,0,0,0,0,0,0,3.6858,3.6877,3.7067,3.7021,3.7023,3.7015,3.7028,3.7119,3.7156,3.7083,3.7081,3.7096,3.7195,3.7229,3.7239,3.7381,3.7272,3.7279,3.7284,3.7288,3.7622,3.7625,0,0,0,0,0,0,3.6848,3.687,3.7063,3.707,3.6934,3.7023,3.7037,3.7085,3.7155,3.7162,3.7099,3.7095,3.7216,3.723,3.7244,3.7389,3.7281,3.7288,3.7293,3.7618,3.7623,3.7627,0,0,0,0,0,0,3.6843,3.6866,3.7058,3.697,3.6994,3.7031,3.7085,3.7089,3.7123,3.7167,3.7173,3.7127,3.7214,3.7232,3.7337,3.7393,3.7292,3.73,3.7613,3.7619,3.7625,3.7681,0,0,0,0,0,0,3.6835,3.6864,3.6912,3.6971,3.6999,3.715,3.7089,3.7094,3.7137,3.7132,3.7195,3.7202,3.7213,3.7324,3.7345,3.7402,3.7306,3.7608,3.7616,3.7623,3.7675,3.7688,3.77,0,0,0,0,0,3.6826,3.6923,3.6914,3.6938,3.7059,3.7153,3.7168,3.7179,3.7142,3.7189,3.7217,3.72,3.7384,3.7335,3.7358,3.7419,3.7605,3.7614,3.7622,3.7669,3.7686,3.77,0,0,0,0,0,0,3.687,3.6931,3.6922,3.7042,3.7092,3.7148,3.7208,3.7197,3.726,3.7252,3.7263,3.7277,3.7383,3.7412,3.7357,3.7539,3.7489,3.7502,3.7516,3.7533,3.7545,3.7535,3.7313,0,0,0,0,0,3.6893,3.6965,3.7015,3.7116,3.7142,3.7171,3.7212,3.7216,3.7269,3.729,3.7326,3.7377,3.7446,3.7492,3.7558,3.7679,3.7691,3.7732,3.7745,3.7755,3.7766,3.7829,3.7847,3.7655,3.7655,3.7655,0,0,3.6943,3.6985,3.703,3.7126,3.7165,3.7237,3.7189,3.7269,3.7322,3.7302,3.7402,3.743,3.7488,3.7601,3.7652,3.7628,3.7822,3.7766,3.7774,3.778,3.7839,3.7857,3.7873,3.7661,3.766,3.7659,0,0,3.7069,3.711,3.7196,3.7237,3.7297,3.7316,3.7336,3.7394,3.7411,3.7512,3.7497,3.7561,3.7681,3.7721,3.7758,3.7897,3.7882,3.7919,3.7985,3.8046,3.806,3.8074,3.812,3.8137,3.793,3.793,3.793,0,3.7123,3.7232,3.7242,3.7322,3.7363,3.7349,3.7435,3.7474,3.7553,3.7581,3.7553,3.7701,3.7739,3.7859,3.7893,3.7924,3.7946,3.7911,3.8058,3.8071,3.8084,3.8128,3.8145,3.7934,3.7934,3.7933,3.7933,0,3.7293,3.7369,3.7431,3.7506,3.7555,3.7638,3.766,3.7708,3.7707,3.7728,3.7829,3.7874,3.7948,3.7977,3.7978,3.8097,3.8079,3.8055,3.8003,3.8105,3.8147,3.8164,3.794,3.7938,3.7937,3.7936,0,0,3.7449,3.7528,3.7551,3.7583,3.7648,3.7706,3.7788,3.786,3.7898,3.7954,3.802,3.8121,3.8098,3.8139,3.8144,3.8198,3.8301,3.8167,3.8168,3.8187,3.843,3.8446,3.8465,3.8293,3.8296,3.8299,3.8424,0,3.7578,3.7722,3.7733,3.7861,3.7929,3.7916,3.7986,3.8033,3.8054,3.8114,3.8138,3.8208,3.8174,3.8198,3.8251,3.8277,3.835,3.8269,3.8352,3.8355,3.8334,3.8488,3.8505,3.8621,3.8441,3.8444,3.8446,0,3.7748,3.7807,3.7942,3.7994,3.8023,3.8086,3.8151,3.821,3.8261,3.8273,3.8318,3.8315,3.8397,3.8345,3.8456,3.8401,3.8435,3.8454,3.8458,3.8464,3.8404,3.8494,3.8659,3.8675,3.8472,3.847,3.8468,0,3.7844,3.7957,3.8051,3.808,3.8145,3.8188,3.8217,3.8266,3.8307,3.8364,3.839,3.8456,3.8492,3.8542,3.8556,3.8518,3.8666,3.8616,3.8675,3.8675,3.8705,3.8702,3.8874,3.8733,3.8733,3.8733,3.8732,0,3.7985,3.8067,3.8094,3.8152,3.8243,3.8255,3.8344,3.837,3.8413,3.8474,3.8468,3.8525,3.8542,3.8602,3.8615,3.8702,3.872,3.8729,3.8731,3.8728,3.8726,3.8749,3.874,3.8737,3.8736,3.8735,3.8735,0,3.8106,3.8129,3.823,3.8282,3.8297,3.8361,3.8405,3.846,3.848,3.8557,3.8576,3.8607,3.8678,3.8697,3.8783,3.879,3.8892,3.8889,3.8874,3.8873,3.893,3.8923,3.912,3.9145,3.8991,3.8993,3.8994,0,3.8193,3.8256,3.8314,3.8354,3.8385,3.845,3.8492,3.8506,3.8549,3.8611,3.8658,3.8727,3.8782,3.8895,3.8925,3.8989,3.8984,3.9049,3.8993,3.8987,3.898,3.8975,3.8979,3.9058,3.906,3.9061,3.9062,0,3.8344,3.8351,3.8411,3.8475,3.8524,3.8575,3.8624,3.8658,3.8678,3.8727,3.8798,3.8841,3.8927,3.8994,3.9059,3.9087,3.9077,3.9079,3.9096,3.9092,3.9079,3.9083,3.8899,3.9074,3.9073,3.9072,3.9071,3.9071,3.8448,3.8501,3.855,3.8616,3.8654,3.87,3.8752,3.8778,3.8838,3.8908,3.8913,3.8989,3.9037,3.9122,3.9154,3.9213,3.9194,3.9219,3.9224,3.9229,3.9232,3.9073,3.9225,3.9225,3.9225,3.9225,3.9224,0,3.8595,3.8625,3.8686,3.8754,3.8805,3.8792,3.8845,3.8889,3.8956,3.9002,3.9056,3.9136,3.9201,3.9236,3.93,3.934,3.9337,3.9356,3.9352,3.9358,3.9248,3.9225,3.9358,3.9358,3.9358,3.9358,3.9358,3.9358,3.8677,3.8765,3.8778,3.8885,3.8914,3.8988,3.9019,3.906,3.9096,3.9185,3.9239,3.9261,3.9302,3.9368,3.9427,3.9435,3.9457,3.9479,3.9484,3.938,3.9366,3.9353,3.9331,3.9484,3.9484,3.9589,3.959,3.959]},{"header":{"parameterUnit":"m.s-1","parameterCategory":1,"la1":30.2991,"la2":30.254,"lo1":-89.0895,"lo2":-89.0444,"dy":0.0017,"dx":0.0017,"nx":28,"ny":28,"refTime":"2025-06-05T21:00:00:Z","depth":0,"parameterNumber":3,"parameterNumberName":"V-component_of_WINDS"},"data":[0,0,0,0,0,0,0,0,0,0,0,0,0,0,0,0,0,0,0,0,0,0,0,0,0,0,0,0,0,0,0,0,0,0,0,0,0,0,0,0,0,0,0,0,0,0,0,0,0,0,0,0,0,0,0,0,0,0,1.7107,1.7108,0,1.7179,1.718,1.7181,1.7163,1.7162,1.716,1.7159,1.7235,1.7238,1.7242,0,0,0,0,0,0,0,0,0,0,0,0,0,1.6953,1.6956,1.7107,1.7108,1.7109,1.7179,1.718,1.7181,1.7164,1.7162,1.716,1.7159,1.7234,1.7238,1.7242,0,0,0,0,0,0,0,0,0,0,0,0,0,1.7022,1.6957,1.7107,1.7108,1.7109,1.7179,1.718,1.7182,1.7164,1.7162,1.716,1.7158,1.7233,1.7237,1.7242,1.7316,0,0,1.7258,1.726,0,0,0,0,0,0,0,0,1.7018,1.7028,1.7107,1.7108,1.7109,1.716,1.7154,1.7227,1.7164,1.7143,1.7159,1.7157,1.7212,1.7218,1.7237,1.7319,1.7322,1.7258,1.7261,1.7263,1.7265,0,0,0,0,0,0,0,1.7013,1.7024,1.7135,1.7108,1.711,1.7105,1.7113,1.7167,1.7189,1.7145,1.7144,1.7152,1.7212,1.7232,1.7238,1.7324,1.7258,1.7262,1.7266,1.7267,1.7468,1.747,0,0,0,0,0,0,1.7007,1.702,1.7133,1.7138,1.7057,1.711,1.7118,1.7146,1.7188,1.7192,1.7154,1.7151,1.7224,1.7233,1.7241,1.7329,1.7263,1.7268,1.7271,1.7466,1.7469,1.7471,0,0,0,0,0,0,1.7004,1.7018,1.713,1.7079,1.7093,1.7115,1.7146,1.7149,1.7168,1.7195,1.7199,1.7171,1.7223,1.7234,1.7297,1.7331,1.727,1.7275,1.7463,1.7467,1.747,1.7505,0,0,0,0,0,0,1.7,1.7017,1.7045,1.708,1.7096,1.7185,1.7148,1.7151,1.7177,1.7174,1.7211,1.7216,1.7222,1.7289,1.7302,1.7337,1.7279,1.746,1.7465,1.7469,1.7501,1.7509,1.7516,0,0,0,0,0,1.6994,1.7053,1.7046,1.706,1.7131,1.7187,1.7196,1.7202,1.718,1.7208,1.7225,1.7214,1.7325,1.7296,1.731,1.7347,1.7458,1.7463,1.7468,1.7497,1.7508,1.7516,0,0,0,0,0,0,1.7022,1.7057,1.7051,1.7122,1.7151,1.7184,1.722,1.7213,1.725,1.7246,1.7252,1.7261,1.7325,1.7342,1.7309,1.7419,1.7388,1.7397,1.7406,1.7416,1.7423,1.7418,1.7283,0,0,0,0,0,1.7037,1.7079,1.7107,1.7167,1.7182,1.7198,1.7223,1.7225,1.7256,1.7269,1.729,1.7321,1.7362,1.739,1.743,1.7503,1.751,1.7535,1.7543,1.7549,1.7556,1.7595,1.7606,1.7488,1.7488,1.7488,0,0,1.7067,1.7091,1.7118,1.7173,1.7196,1.7239,1.7209,1.7257,1.7289,1.7276,1.7336,1.7353,1.7388,1.7456,1.7487,1.7472,1.759,1.7556,1.7561,1.7565,1.7602,1.7613,1.7623,1.7492,1.7491,1.7491,0,0,1.7144,1.7167,1.7219,1.7242,1.7277,1.7287,1.73,1.7333,1.7343,1.7403,1.7394,1.7432,1.7504,1.7529,1.7551,1.7635,1.7627,1.7648,1.7689,1.7726,1.7736,1.7744,1.7773,1.7784,1.7655,1.7655,1.7655,0,1.7177,1.7242,1.7246,1.7294,1.7318,1.7308,1.736,1.7383,1.7429,1.7446,1.7429,1.7517,1.754,1.7613,1.7633,1.7652,1.7666,1.7644,1.7734,1.7742,1.775,1.7778,1.7789,1.7657,1.7657,1.7657,1.7657,0,1.7281,1.7326,1.7363,1.7407,1.7436,1.7486,1.7497,1.7526,1.7524,1.7536,1.7597,1.7624,1.7668,1.7685,1.7686,1.7758,1.7748,1.7732,1.7701,1.7764,1.779,1.7801,1.7661,1.766,1.7659,1.7659,0,0,1.7379,1.7423,1.7437,1.7456,1.7493,1.7528,1.7577,1.7619,1.7643,1.7675,1.7716,1.7776,1.7761,1.7786,1.7788,1.7821,1.7885,1.7802,1.7803,1.7816,1.7966,1.7977,1.799,1.7879,1.7882,1.7883,1.7963,0,1.7459,1.7545,1.7549,1.7627,1.7668,1.7657,1.77,1.7727,1.7739,1.7775,1.7788,1.783,1.7808,1.7823,1.7855,1.7871,1.7915,1.7865,1.7917,1.7919,1.7909,1.8004,1.8016,1.809,1.7973,1.7975,1.7976,0,1.7565,1.7599,1.768,1.771,1.7727,1.7765,1.7803,1.7838,1.7868,1.7875,1.7902,1.7899,1.7948,1.7915,1.7983,1.7948,1.797,1.7981,1.7984,1.7989,1.7952,1.8011,1.8114,1.8125,1.7993,1.7991,1.799,0,1.7627,1.7693,1.775,1.7767,1.7803,1.783,1.7846,1.7874,1.7899,1.7933,1.7949,1.7988,1.8009,1.8039,1.8047,1.8022,1.8114,1.8082,1.8121,1.8121,1.8141,1.814,1.8249,1.8155,1.8155,1.8155,1.8155,0,1.7716,1.7767,1.7779,1.7814,1.7869,1.7874,1.7928,1.7943,1.7967,1.8005,1.7998,1.8033,1.8041,1.8078,1.8084,1.8139,1.8149,1.8155,1.8156,1.8156,1.8155,1.817,1.8165,1.8158,1.8157,1.8156,1.8156,0,1.7796,1.7806,1.7868,1.7896,1.7904,1.7944,1.7968,1.8002,1.8012,1.8059,1.8071,1.8087,1.813,1.814,1.8192,1.8195,1.826,1.8256,1.825,1.825,1.8287,1.8283,1.841,1.8426,1.8322,1.8323,1.8324,0,1.7852,1.789,1.7922,1.7947,1.7964,1.8003,1.8028,1.8033,1.8059,1.8095,1.8124,1.8165,1.8199,1.8268,1.8284,1.8323,1.832,1.8361,1.8326,1.8324,1.832,1.8318,1.8321,1.8368,1.837,1.837,1.8371,0,1.7951,1.7953,1.7989,1.8026,1.8056,1.8086,1.8114,1.8134,1.8143,1.8172,1.8215,1.8241,1.8293,1.8334,1.8372,1.8389,1.8382,1.8382,1.8393,1.8393,1.8387,1.839,1.8268,1.8379,1.8379,1.8378,1.8377,1.8377,1.802,1.8053,1.808,1.812,1.8141,1.8167,1.82,1.8213,1.8249,1.8291,1.8292,1.8338,1.8366,1.8417,1.8435,1.8472,1.8459,1.8475,1.8479,1.8483,1.8486,1.8381,1.8479,1.8479,1.8479,1.8478,1.8478,0,1.8118,1.8134,1.817,1.821,1.824,1.823,1.826,1.8287,1.8328,1.8354,1.8386,1.8435,1.8475,1.8494,1.8533,1.8558,1.8555,1.8568,1.8566,1.857,1.8496,1.8482,1.8569,1.8569,1.8569,1.8569,1.8569,1.8569,1.8172,1.8227,1.8232,1.8297,1.8313,1.8358,1.8376,1.84,1.8421,1.8476,1.8508,1.852,1.8543,1.8583,1.8618,1.8623,1.8637,1.8652,1.8654,1.8585,1.8575,1.8567,1.8554,1.8655,1.8655,1.8726,1.8726,1.8727]}]]